Weather in Poldnevaya

Russia / Sverdlovsk Oblast     56°17′51″N   60°17′04″E
temp.,
°C
wind,
m/s
gust,
m/s
humid.,
%
clouds,
%
prec.,
mm/h
press.,
hPa
HPBL,
m
8 march, mon
mon823:00−18w369529 0.1 1009126
02:00−18w399722 0.0 1009207
05:00−20wsw389939 0.0 1010167
08:00−18ssw269770 0.0 1009162
11:00−12s489085 0.0 1006404
14:00−8ssw4789100 0.4 1004853
17:00−7sw51087100 0.9 10021134
20:00−7ssw51492100 0.4 1001873
9 march, tue
tue923:00−9wsw4128675 0.6 1003510
02:00−8sw5139137 0.1 1003737
05:00−9ssw499467 0.2 1003320
08:00−9ssw2496100 0.3 1002137
11:00−6sw4891100 0.9 1003860
14:00−5wnw6980100 1.1 10061201
17:00−7w5982100 1.1 10081067
20:00−12w379498 0.0 1010130
10 march, wed
wed1023:00−14wsw229699 0.0 101129
02:00−15wsw0096100 0.0 101020
05:00−15e1296100 0.0 100921
08:00−14e3796100 0.3 1007280
11:00−11ene4894100 1.1 1004419
14:00−10ene61094100 1.8 1001587
17:00−10ene51094100 4.1 1000742
20:00−12ne61294100 1.9 1001714
11 march, thu
thu1123:00−15nne61294100 3.1 1003654
02:00−17n61295100 1.2 1004595
05:00−19n51196100 1.8 1007512
08:00−21nnw41095100 0.3 1010400
11:00−18nnw488499 0.3 1012475
14:00−14nw468026 0.0 1013762
17:00−14wnw588644 0.0 1015763
20:00−18wnw41192100 0.0 1017492
12 march, fri
fri1223:00−17w51291100 0.1 1019524
02:00−19w6129298 0.1 1020414
05:00−18w6149199 0.1 1020415
08:00−18w7159299 0.0 1022442
11:00−14w6129199 0.0 1023492
14:00−11w6118756 0.0 1024616
17:00−10w6118641 0.0 1024738
20:00−12w5138963 0.0 1026583